Iridium 75 - Orbit

View from above orbital plane
View from above orbital plane
View from above satellite
View from above satellite

Ground track
Ground track

The orbit data is extracted from the following two-line orbital elements,

1 25346U 98032E   13139.46663123  .00000185  00000-0  59130-4 0  3305
2 25346 086.3961 126.7867 0002275 104.9861 064.5352 14.34218600786147
Epoch (UTC): 19 May 2013 11:11:56
Eccentricity: 0.0002275
inclination: 86.3961°
perigee height: 776 km
apogee height: 779 km
right ascension of ascending node: 126.7867°
argument of perigee: 104.9861°
revolutions per day: 14.34218600
mean anomaly at epoch: 64.5352°
orbit number at epoch: 78614

The dashed part of the orbit path shows where the satellite is in the earth's shadow,  

Developed and maintained by Chris Peat, Heavens-Above GmbH. Please read the updated FAQ before sending e-mail. Imprint. DLR